Flag for Mexico Weather past 2 weeks in Tijuana, Baja California, Mexico

Now
63 °F

Passing clouds.


Feels Like: 63 °F
Forecast: 61 / 79 °F
Wind: No wind

Location: Brown Field Municipal Airport

Current Time: Jul 28, 2015 at 3:28:41 AM

Latest Report: Jul 28, 2015 at 2:53 AM


Visibility: 10 mi

Pressure: 29.88 "Hg

Humidity: 87%

Dew point: 59 °F

Location of TijuanaLocation

Historic Weather in Tijuana — Graph

°F

Tijuana temperature yesterday

Maximum temperature yesterday: 76 °F (at 12:53 PM)
Minimum temperature yesterday: 64 °F (at 9:53 PM)
Average temperature yesterday: 69 °F

Past Weeks' High & Low Weather Summary

 TemperatureHumidityPressure
High89 °F (Jul 19, 11:53 AM)100% (Jul 13, 2:56 AM)30.06 "Hg (Jul 13, 2:56 AM)
Low61 °F (Jul 13, 5:53 AM)46% (Jul 18, 3:53 PM)29.81 "Hg (Jul 17, 6:53 PM)
Average71 °F77%29.93 "Hg
* Reported Jul 13 1:53 AM — Jul 28 1:53 AM, Tijuana, Weather by CustomWeather, © 2015

Note: Actual official high and low records may vary slightly from our data, if they occured in-between our weather recording intervals... More about our weather records

Advertising

Tijuana weather history for previous 24 hours

 ConditionsComfort  
Time TempWeatherWind HumidityBarometerVisibility
1:53 AM
Tue, Jul 28
63 °FPassing clouds.No wind90%29.88 "Hg10 mi
12:53 AM63 °FClear.No wind90%29.89 "Hg10 mi
11:53 PM
Mon, Jul 27
64 °FClear.No wind87%29.90 "Hg10 mi
10:53 PM64 °FClear.3 mph87%29.90 "Hg10 mi
9:53 PM64 °FClear.No wind87%29.90 "Hg10 mi
8:53 PM65 °FClear.5 mph85%29.89 "Hg10 mi
7:53 PM67 °FSunny.5 mph79%29.88 "Hg10 mi
6:53 PM69 °FSunny.7 mph73%29.87 "Hg10 mi
5:53 PM71 °FSunny.6 mph68%29.87 "Hg10 mi
4:53 PM73 °FSunny.8 mph62%29.88 "Hg10 mi
3:53 PM74 °FSunny.9 mph60%29.88 "Hg10 mi
2:53 PM75 °FSunny.10 mph58%29.90 "Hg10 mi
1:53 PM75 °FSunny.14 mph60%29.90 "Hg10 mi
12:53 PM76 °FSunny.9 mph56%29.91 "Hg10 mi
11:53 AM75 °FSunny.10 mph58%29.92 "Hg10 mi
10:53 AM75 °FSunny.7 mph58%29.93 "Hg10 mi
9:53 AM71 °FSunny.6 mph63%29.94 "Hg10 mi
8:53 AM69 °FSunny.No wind68%29.95 "Hg10 mi
7:53 AM67 °FPartly sunny.No wind73%29.93 "Hg10 mi
6:53 AM66 °FPassing clouds.No wind75%29.92 "Hg10 mi
5:53 AM65 °FOvercast.No wind78%29.92 "Hg10 mi
4:53 AM65 °FOvercast.No wind78%29.91 "Hg10 mi
3:53 AM66 °FOvercast.5 mph78%29.91 "Hg10 mi
Weather by CustomWeather, © 2015

See weather overviewHow to use our weather pages